Regional Weather Roundup
Issued by NWS Charleston, WV

Home | Current Version | Previous Version | Graphics & Text | Print | Product List | Glossary On
Versions: 1 2 3 4 5 6 7 8 9 10 11 12 13 14 15 16 17 18 19 20 21 22 23 24 25 26 27
000
ASUS41 KRLX 241710
RWRRLX
West Virginia Regional Weather Roundup
National Weather Service Charleston WV
100 PM EDT TUE MAY 24 2016

Note: "fair" indicates few or no clouds below 12,000 feet with no
significant weather and/or obstructions to visibility.

WVZ003-241800-
Northern Panhandle of West Virginia

CITY           SKY/WX    TMP DP  RH WIND       PRES   REMARKS
WHEELING         N/A     76  49  38 W13G18    30.10S
$$

WVZ009-241800-
Northwest West Virginia

CITY           SKY/WX    TMP DP  RH WIND       PRES   REMARKS
PARKERSBURG      N/A     76  52  43 W7        30.14F
$$

WVZ006-241800-
Western West Virginia

CITY           SKY/WX    TMP DP  RH WIND       PRES   REMARKS
HUNTINGTON       N/A     77  51  40 SW7       30.13F
$$

WVZ015-241800-
West Central West Virginia

CITY           SKY/WX    TMP DP  RH WIND       PRES   REMARKS
CHARLESTON       N/A     77  51  40 W6        30.13F
$$

WVZ022-031-241800-
North Central West Virginia

CITY           SKY/WX    TMP DP  RH WIND       PRES   REMARKS
CLARKSBURG     PTSUNNY   75  55  49 MISG      30.12F
MORGANTOWN       N/A     74  48  39 S6        30.12F
$$

WVZ025-035-042-045-241800-
Southern West Virginia

CITY           SKY/WX    TMP DP  RH WIND       PRES   REMARKS
BECKLEY          N/A     69  49  48 W5        30.19F
LOGAN            N/A     73  50  43 CALM      30.16S
BLUEFIELD        N/A     68  45  43 SW3       30.20F
LEWISBURG      PTSUNNY   69  47  45 W5        30.18S
$$

WVZ047-241800-
Northern Mountains of West Virginia

CITY           SKY/WX    TMP DP  RH WIND       PRES   REMARKS
ELKINS           N/A     71  50  47 NW9       30.15F
$$

WVZ052-241800-
Eastern Panhandle of West Virginia

CITY           SKY/WX    TMP DP  RH WIND       PRES   REMARKS
MARTINSBURG      N/A     79  50  36 NW8G18    30.03F
PETERSBURG       N/A     78  53  42 W12G18    30.09S
$$




USA.gov is the U.S. government's official web portal to all federal, state and local government web resources and services.